• En España
  • Lista de países
  • Para 7 días
  • Temperatura del agua
  • Mapa Satelital
  • El tiempo en el mapa
  • Informadores
  • user-avatar
    Iniciar sesión

    Tiempo cada hora Shaki

    Hoy, 23 Noviembre, Jueves

    Tiempo Temperatura Precipitaciones Viento Presión Humedad
    00:00 +7°C° 0,4 mm 2 mps 732 mmHg 73%
    01:00 +7°C° 0,1 mm 2 mps 732 mmHg 72%
    02:00 +6°C° 0,1 mm 2 mps 732 mmHg 71%
    03:00 +6°C° 0,1 mm 2 mps 732 mmHg 70%
    04:00 +5°C° 0 mm 2 mps 733 mmHg 67%
    05:00 +5°C° 0 mm 2 mps 733 mmHg 63%
    06:00 +5°C° 0 mm 2 mps 733 mmHg 60%
    07:00 +5°C° 0 mm 2 mps 733 mmHg 55%
    08:00 +6°C° 0 mm 2 mps 733 mmHg 50%
    09:00 +7°C° 0 mm 2 mps 732 mmHg 47%
    10:00 +7°C° 0 mm 2 mps 732 mmHg 43%
    11:00 +8°C° 0 mm 2 mps 732 mmHg 40%
    12:00 +8°C° 0 mm 2 mps 732 mmHg 36%
    13:00 +8°C° 0 mm 2 mps 732 mmHg 36%
    14:00 +8°C° 0 mm 3 mps 732 mmHg 35%
    15:00 +8°C° 0 mm 3 mps 732 mmHg 35%
    16:00 +7°C° 0 mm 3 mps 732 mmHg 37%
    17:00 +5°C° 0 mm 3 mps 733 mmHg 40%
    18:00 +4°C° 0 mm 3 mps 733 mmHg 42%
    19:00 +4°C° 0 mm 3 mps 734 mmHg 43%
    20:00 +3°C° 0 mm 3 mps 734 mmHg 43%
    21:00 +3°C° 0 mm 4 mps 734 mmHg 44%
    22:00 +3°C° 0 mm 4 mps 735 mmHg 44%
    23:00 +1°C° 0 mm 4 mps 735 mmHg 43%

    Mañana, 24 Noviembre, Viernes

    Tiempo Temperatura Precipitaciones Viento Presión Humedad
    00:00 +1°C° 0 mm 4 mps 736 mmHg 42%
    01:00 +2°C° 0 mm 3 mps 736 mmHg 40%
    02:00 +1°C° 0 mm 3 mps 736 mmHg 37%
    03:00 +1°C° 0 mm 3 mps 736 mmHg 34%
    04:00 +1°C° 0 mm 3 mps 737 mmHg 32%
    05:00 +1°C° 0 mm 3 mps 737 mmHg 30%
    06:00 0°C° 0 mm 3 mps 737 mmHg 28%
    07:00 +1°C° 0 mm 3 mps 737 mmHg 27%
    08:00 +3°C° 0 mm 4 mps 737 mmHg 26%
    09:00 +4°C° 0 mm 4 mps 738 mmHg 25%
    10:00 +4°C° 0 mm 4 mps 737 mmHg 25%
    11:00 +5°C° 0 mm 4 mps 737 mmHg 25%
    12:00 +6°C° 0 mm 4 mps 737 mmHg 26%
    13:00 +6°C° 0 mm 4 mps 737 mmHg 25%
    14:00 +7°C° 0 mm 3 mps 737 mmHg 25%
    15:00 +7°C° 0 mm 3 mps 737 mmHg 25%
    16:00 +4°C° 0 mm 3 mps 738 mmHg 27%
    17:00 +4°C° 0 mm 2 mps 738 mmHg 28%
    18:00 +3°C° 0 mm 2 mps 738 mmHg 29%
    19:00 +3°C° 0 mm 2 mps 739 mmHg 28%
    20:00 +2°C° 0 mm 2 mps 739 mmHg 28%
    21:00 +2°C° 0 mm 2 mps 739 mmHg 27%
    22:00 +2°C° 0 mm 2 mps 739 mmHg 27%
    23:00 +2°C° 0 mm 2 mps 739 mmHg 28%

    Pasado mañana, 25 Noviembre, Sábado

    Tiempo Temperatura Precipitaciones Viento Presión Humedad
    00:00 +2°C° 0 mm 2 mps 739 mmHg 28%
    01:00 +2°C° 0 mm 2 mps 739 mmHg 31%
    02:00 +1°C° 0 mm 3 mps 739 mmHg 33%
    03:00 +1°C° 0 mm 3 mps 739 mmHg 35%
    04:00 +1°C° 0 mm 3 mps 740 mmHg 37%
    05:00 0°C° 0 mm 4 mps 740 mmHg 40%
    06:00 0°C° 0 mm 4 mps 740 mmHg 42%
    07:00 +1°C° 0 mm 4 mps 741 mmHg 40%
    08:00 +1°C° 0 mm 5 mps 742 mmHg 38%
    09:00 +2°C° 0 mm 5 mps 742 mmHg 36%
    10:00 +3°C° 0 mm 5 mps 743 mmHg 35%
    11:00 +5°C° 0 mm 5 mps 743 mmHg 34%
    12:00 +5°C° 0 mm 5 mps 743 mmHg 33%
    13:00 +5°C° 0 mm 4 mps 743 mmHg 34%
    14:00 +5°C° 0 mm 4 mps 743 mmHg 35%
    15:00 +5°C° 0 mm 4 mps 743 mmHg 36%
    16:00 +4°C° 0 mm 3 mps 744 mmHg 39%
    17:00 +4°C° 0 mm 2 mps 744 mmHg 41%
    18:00 +3°C° 0 mm 2 mps 745 mmHg 44%
    19:00 +3°C° 0 mm 2 mps 745 mmHg 43%
    20:00 +3°C° 0 mm 2 mps 745 mmHg 42%
    21:00 +3°C° 0 mm 1 mps 745 mmHg 41%
    22:00 +3°C° 0 mm 1 mps 745 mmHg 39%
    23:00 +2°C° 0 mm 2 mps 745 mmHg 37%

    26 Noviembre, Domingo

    Tiempo Temperatura Precipitaciones Viento Presión Humedad
    00:00 +2°C° 0 mm 2 mps 745 mmHg 35%
    01:00 +2°C° 0 mm 2 mps 745 mmHg 35%
    02:00 +1°C° 0 mm 2 mps 745 mmHg 35%
    03:00 +2°C° 0 mm 1 mps 745 mmHg 35%
    04:00 +2°C° 0 mm 1 mps 745 mmHg 36%
    05:00 +2°C° 0 mm 1 mps 745 mmHg 38%
    06:00 +2°C° 0 mm 1 mps 745 mmHg 40%
    07:00 +3°C° 0 mm 1 mps 745 mmHg 38%
    08:00 +4°C° 0 mm 1 mps 745 mmHg 35%
    09:00 +5°C° 0 mm 1 mps 744 mmHg 33%
    10:00 +6°C° 0 mm 1 mps 744 mmHg 31%
    11:00 +7°C° 0 mm 1 mps 743 mmHg 30%
    12:00 +7°C° 0 mm 2 mps 742 mmHg 28%
    13:00 +7°C° 0 mm 2 mps 742 mmHg 28%
    14:00 +7°C° 0 mm 2 mps 741 mmHg 28%
    15:00 +7°C° 0 mm 2 mps 741 mmHg 28%
    16:00 +6°C° 0 mm 2 mps 741 mmHg 29%
    17:00 +5°C° 0 mm 2 mps 741 mmHg 30%
    18:00 +4°C° 0 mm 2 mps 741 mmHg 32%
    19:00 +3°C° 0 mm 2 mps 741 mmHg 32%
    20:00 +4°C° 0 mm 1 mps 741 mmHg 31%
    21:00 +4°C° 0 mm 1 mps 741 mmHg 31%
    22:00 +3°C° 0 mm 2 mps 741 mmHg 31%
    23:00 +3°C° 0 mm 2 mps 740 mmHg 31%

    27 Noviembre, Lunes

    Tiempo Temperatura Precipitaciones Viento Presión Humedad
    00:00 +3°C° 0 mm 2 mps 740 mmHg 30%
    01:00 +3°C° 0 mm 2 mps 740 mmHg 30%
    02:00 +3°C° 0 mm 2 mps 740 mmHg 30%
    03:00 +3°C° 0 mm 2 mps 739 mmHg 29%
    04:00 +3°C° 0 mm 2 mps 739 mmHg 29%
    05:00 +3°C° 0 mm 2 mps 739 mmHg 29%
    06:00 +3°C° 0 mm 2 mps 739 mmHg 29%
    07:00 +4°C° 0 mm 2 mps 739 mmHg 28%
    08:00 +6°C° 0 mm 2 mps 739 mmHg 27%
    09:00 +7°C° 0 mm 2 mps 739 mmHg 26%
    10:00 +8°C° 0 mm 2 mps 738 mmHg 25%
    11:00 +10°C° 0 mm 2 mps 738 mmHg 24%
    12:00 +12°C° 0 mm 2 mps 738 mmHg 23%
    13:00 +12°C° 0 mm 2 mps 737 mmHg 24%
    14:00 +12°C° 0 mm 2 mps 737 mmHg 25%
    15:00 +12°C° 0 mm 2 mps 737 mmHg 26%
    16:00 +9°C° 0 mm 2 mps 737 mmHg 27%
    17:00 +9°C° 0 mm 1 mps 738 mmHg 29%
    18:00 +7°C° 0 mm 1 mps 738 mmHg 31%
    19:00 +7°C° 0 mm 1 mps 738 mmHg 31%
    20:00 +7°C° 0 mm 1 mps 738 mmHg 31%
    21:00 +6°C° 0 mm 1 mps 738 mmHg 31%
    22:00 +6°C° 0 mm 1 mps 738 mmHg 32%
    23:00 +6°C° 0 mm 1 mps 738 mmHg 32%

    28 Noviembre, Martes

    Tiempo Temperatura Precipitaciones Viento Presión Humedad
    00:00 +5°C° 0 mm 1 mps 737 mmHg 33%
    01:00 +5°C° 0 mm 1 mps 737 mmHg 34%
    02:00 +5°C° 0 mm 1 mps 737 mmHg 34%
    03:00 +5°C° 0 mm 1 mps 737 mmHg 35%
    04:00 +5°C° 0 mm 1 mps 737 mmHg 35%
    05:00 +5°C° 0 mm 1 mps 737 mmHg 35%
    06:00 +5°C° 0 mm 1 mps 737 mmHg 36%
    07:00 +6°C° 0 mm 1 mps 737 mmHg 34%
    08:00 +8°C° 0 mm 1 mps 737 mmHg 33%
    09:00 +9°C° 0 mm 1 mps 737 mmHg 31%
    10:00 +10°C° 0 mm 1 mps 737 mmHg 30%
    11:00 +10°C° 0 mm 2 mps 736 mmHg 29%
    12:00 +12°C° 0 mm 2 mps 736 mmHg 28%
    13:00 +12°C° 0 mm 2 mps 736 mmHg 28%
    14:00 +12°C° 0 mm 2 mps 735 mmHg 29%
    15:00 +12°C° 0 mm 2 mps 735 mmHg 30%
    16:00 +10°C° 0 mm 2 mps 736 mmHg 32%
    17:00 +10°C° 0 mm 1 mps 736 mmHg 33%
    18:00 +8°C° 0 mm 1 mps 736 mmHg 35%
    19:00 +8°C° 0 mm 1 mps 736 mmHg 36%
    20:00 +8°C° 0 mm 1 mps 736 mmHg 37%
    21:00 +7°C° 0 mm 1 mps 736 mmHg 38%
    22:00 +7°C° 0 mm 1 mps 736 mmHg 40%
    23:00 +7°C° 0 mm 1 mps 736 mmHg 42%
    Mostrar más